Iowa Falls, IA

5:53 AM CST on December 11, 2019 (GMT -0600)
Iowa Falls Municipal

Weather History for KIFA - October, 2019

Change the Weather History Date:

Friday, October 11, 2019

  Actual Average Record
Temperature  
Mean Temperature 38 °F -  
Max Temperature 41 °F 64 °F 84 °F (2015)
Min Temperature 33 °F 39 °F 17 °F (1987)
Degree Days  
Heating Degree Days 27    
Moisture  
Dew Point 27 °F    
Average Humidity 66    
Maximum Humidity 86    
Minimum Humidity 51    
Precipitation  
Precipitation 0.00 in - - ()
Sea Level Pressure  
Sea Level Pressure 29.97 in    
Wind  
Wind Speed 16 mph ()    
Max Wind Speed 24 mph    
Max Gust Speed 33 mph    
Visibility 9.8 miles    
Events Rain    
Averages and records for this station are not official NWS values.
T = Trace of Precipitation, MM = Missing Value Source: Averaged Metar Reports

Daily Weather History Graph

Daily Weather History Graph

Search for Another Location

Airport or City:

Astronomy

Oct. 11, 2019 Rise Set
Actual Time 7:21 AM CDT 6:37 PM CDT
Civil Twilight 6:52 AM CDT 7:05 PM CDT
Nautical Twilight 6:20 AM CDT 7:38 PM CDT
Astronomical Twilight 5:47 AM CDT 8:11 PM CDT
Moon 6:11 PM CDT 4:57 AM CDT
Length of Visible Light 12h 13m
Length of Day
11h 16m
Waxing Gibbous, 96% of the Moon is Illuminated
Oct 11
Waxing Gibbous
Oct 13
Full
Oct 21
Last Quarter
Oct 27
New
Nov 4
First Quarter

Hourly Weather History & Observations

Time (CDT) Temp. Windchill Dew Point Humidity Pressure Visibility Wind Dir Wind Speed Gust Speed Precip Events Conditions
12:15 AM 42.1 °F 34.5 °F 38.3 °F 86% 29.85 in 7.0 mi West 15.0 mph 24.2 mph N/A   Overcast
12:35 AM 41.9 °F 34.0 °F 38.1 °F 86% 29.85 in 5.0 mi West 16.1 mph 23.0 mph N/A   Overcast
12:55 AM 41.2 °F 33.4 °F 37.4 °F 86% 29.86 in 10.0 mi West 15.0 mph 18.4 mph N/A   Overcast
1:15 AM 41.2 °F 33.7 °F 37.0 °F 85% 29.86 in 10.0 mi West 13.8 mph 21.9 mph N/A   Overcast
1:35 AM 41.0 °F 33.9 °F 36.5 °F 84% 29.87 in 10.0 mi West 12.7 mph - N/A   Overcast
1:55 AM 40.5 °F 31.2 °F 36.0 °F 84% 29.89 in 10.0 mi West 19.6 mph 23.0 mph N/A   Overcast
2:15 AM 39.7 °F 31.5 °F 35.2 °F 84% 29.89 in 10.0 mi West 15.0 mph 21.9 mph N/A   Overcast
2:35 AM 39.2 °F 29.6 °F 34.7 °F 84% 29.89 in 7.0 mi West 19.6 mph 24.2 mph N/A   Overcast
2:55 AM 39.2 °F 31.2 °F 34.2 °F 82% 29.88 in 10.0 mi West 13.8 mph 26.5 mph N/A   Overcast
3:15 AM 38.8 °F 30.8 °F 34.0 °F 83% 29.88 in 10.0 mi West 13.8 mph 19.6 mph N/A   Overcast
3:35 AM 38.7 °F 29.8 °F 33.4 °F 81% 29.89 in 10.0 mi West 16.1 mph 26.5 mph N/A   Overcast
3:55 AM 38.5 °F 30.7 °F 32.5 °F 79% 29.89 in 10.0 mi West 12.7 mph 27.6 mph N/A   Overcast
4:15 AM 38.3 °F 28.7 °F 32.0 °F 78% 29.91 in 10.0 mi West 18.4 mph 29.9 mph N/A   Overcast
4:35 AM 38.3 °F 29.0 °F 32.0 °F 78% 29.92 in 10.0 mi West 17.3 mph 26.5 mph N/A   Overcast
4:55 AM 37.9 °F 30.0 °F 32.0 °F 79% 29.91 in 10.0 mi West 12.7 mph 24.2 mph N/A   Overcast
5:15 AM 37.8 °F 29.0 °F 31.8 °F 79% 29.92 in 10.0 mi West 15.0 mph 19.6 mph N/A   Overcast
5:35 AM 37.4 °F 28.2 °F 31.1 °F 78% 29.93 in 10.0 mi West 16.1 mph 25.3 mph N/A   Overcast
5:55 AM 37.4 °F 28.9 °F 31.1 °F 78% 29.93 in 10.0 mi West 13.8 mph - N/A   Overcast
6:15 AM 36.5 °F 26.7 °F 31.1 °F 81% 29.94 in 7.0 mi West 17.3 mph 21.9 mph N/A Rain Light Rain
6:35 AM 36.5 °F 26.3 °F 30.7 °F 80% 29.93 in 10.0 mi West 18.4 mph - N/A   Light Drizzle
6:55 AM 36.7 °F 26.6 °F 30.4 °F 78% 29.94 in 10.0 mi West 18.4 mph 27.6 mph N/A   Overcast
7:15 AM 36.5 °F 25.7 °F 29.5 °F 76% 29.94 in 10.0 mi West 20.7 mph 25.3 mph N/A   Overcast
7:35 AM 36.3 °F 24.7 °F 29.1 °F 75% 29.94 in 10.0 mi West 24.2 mph 28.8 mph N/A   Overcast
7:55 AM 36.0 °F 25.3 °F 28.6 °F 75% 29.95 in 10.0 mi West 19.6 mph 33.4 mph N/A   Overcast
8:35 AM 36.1 °F 25.9 °F 27.1 °F 70% 29.98 in 10.0 mi West 18.4 mph 29.9 mph N/A   Overcast
8:55 AM 36.5 °F 28.2 °F 27.5 °F 70% 29.99 in 10.0 mi West 12.7 mph 26.5 mph N/A   Overcast
9:15 AM 36.9 °F 27.1 °F 27.1 °F 68% 29.99 in 10.0 mi West 17.3 mph 24.2 mph N/A   Overcast
9:35 AM 36.7 °F 26.3 °F 27.0 °F 68% 29.99 in 10.0 mi West 19.6 mph 26.5 mph N/A   Overcast
9:55 AM 36.9 °F 25.6 °F 26.1 °F 65% 30.00 in 10.0 mi West 23.0 mph 28.8 mph N/A   Overcast
10:15 AM 37.8 °F 28.0 °F 25.7 °F 62% 30.00 in 10.0 mi West 18.4 mph 28.8 mph N/A   Overcast
10:35 AM 36.9 °F 26.5 °F 25.7 °F 64% 30.00 in 10.0 mi West 19.6 mph 27.6 mph N/A   Overcast
10:55 AM 37.0 °F 27.0 °F 25.9 °F 64% 30.00 in 10.0 mi West 18.4 mph 27.6 mph N/A   Overcast
11:15 AM 37.6 °F 28.4 °F 25.0 °F 60% 30.01 in 10.0 mi West 16.1 mph 27.6 mph N/A   Overcast
11:55 AM 39.2 °F 29.6 °F 25.3 °F 58% 30.00 in 10.0 mi West 19.6 mph 31.1 mph N/A   Overcast
12:15 PM 39.0 °F 29.3 °F 24.4 °F 56% 30.01 in 10.0 mi West 19.6 mph 27.6 mph N/A   Overcast
12:35 PM 38.8 °F 28.3 °F 23.2 °F 53% 30.01 in 10.0 mi West 23.0 mph 33.4 mph N/A   Overcast
12:55 PM 38.8 °F 29.1 °F 23.5 °F 54% 30.01 in 10.0 mi West 19.6 mph 32.2 mph N/A   Overcast
1:15 PM 38.8 °F 28.0 °F 23.0 °F 53% 30.01 in 10.0 mi West 24.2 mph 33.4 mph N/A   Overcast
1:35 PM 39.2 °F 29.0 °F 23.5 °F 53% 30.01 in 10.0 mi West 21.9 mph 33.4 mph N/A   Overcast
1:55 PM 39.0 °F 28.8 °F 23.5 °F 54% 30.01 in 10.0 mi West 21.9 mph 31.1 mph N/A   Overcast
2:35 PM 38.3 °F 28.7 °F 23.7 °F 56% 30.01 in 10.0 mi West 18.4 mph 31.1 mph N/A   Overcast
2:55 PM 38.3 °F 28.1 °F 23.0 °F 54% 30.01 in 10.0 mi WSW 20.7 mph 28.8 mph N/A   Overcast
3:15 PM 38.3 °F 27.3 °F 23.4 °F 55% 30.01 in 10.0 mi WSW 24.2 mph 27.6 mph N/A   Overcast
3:35 PM 38.3 °F 27.3 °F 23.4 °F 55% 30.01 in 10.0 mi West 24.2 mph 29.9 mph N/A   Overcast
3:55 PM 37.8 °F 27.4 °F 23.9 °F 57% 30.01 in 10.0 mi WSW 20.7 mph 27.6 mph N/A   Overcast
4:15 PM 38.3 °F 27.8 °F 23.5 °F 55% 30.01 in 10.0 mi WSW 21.9 mph 28.8 mph N/A   Overcast
4:35 PM 38.3 °F 28.4 °F 23.2 °F 55% 30.01 in 10.0 mi WSW 19.6 mph 28.8 mph N/A   Overcast
4:55 PM 38.7 °F 28.6 °F 21.9 °F 51% 30.01 in 10.0 mi West 20.7 mph 24.2 mph N/A   Overcast
5:15 PM 38.5 °F 28.3 °F 22.5 °F 53% 30.01 in 10.0 mi WSW 20.7 mph 32.2 mph N/A   Overcast
5:35 PM 38.3 °F 28.7 °F 21.9 °F 52% 30.02 in 10.0 mi West 18.4 mph 31.1 mph N/A   Overcast
5:55 PM 37.8 °F 27.1 °F 22.6 °F 54% 30.02 in 10.0 mi West 21.9 mph 28.8 mph N/A   Overcast
6:15 PM 37.6 °F 26.9 °F 22.3 °F 54% 30.03 in 10.0 mi WSW 21.9 mph 28.8 mph N/A   Overcast
6:35 PM 37.4 °F 27.8 °F 23.5 °F 57% 30.03 in 10.0 mi West 17.3 mph 27.6 mph N/A   Overcast
6:55 PM 37.4 °F 26.4 °F 23.9 °F 58% 30.02 in 10.0 mi WSW 23.0 mph 27.6 mph N/A   Overcast
7:15 PM 37.4 °F 28.9 °F 23.5 °F 57% 30.02 in 10.0 mi WSW 13.8 mph 24.2 mph N/A   Overcast
7:35 PM 37.4 °F 27.5 °F 22.5 °F 55% 30.02 in 10.0 mi WSW 18.4 mph 26.5 mph N/A   Overcast
7:55 PM 37.4 °F 28.5 °F 22.8 °F 56% 30.02 in 10.0 mi WSW 15.0 mph 23.0 mph N/A   Overcast
8:15 PM 37.4 °F 27.8 °F 23.5 °F 57% 30.02 in 10.0 mi WSW 17.3 mph 27.6 mph N/A   Overcast
8:35 PM 37.4 °F 26.9 °F 23.0 °F 56% 30.03 in 10.0 mi WSW 20.7 mph 31.1 mph N/A   Overcast
8:55 PM 37.0 °F 26.2 °F 23.0 °F 57% 30.03 in 10.0 mi WSW 21.9 mph 32.2 mph N/A   Overcast
9:15 PM 37.0 °F 26.7 °F 22.8 °F 56% 30.02 in 10.0 mi WSW 19.6 mph 27.6 mph N/A   Overcast
9:35 PM 36.9 °F 26.5 °F 23.0 °F 57% 30.02 in 10.0 mi WSW 19.6 mph 27.6 mph N/A   Overcast
9:55 PM 36.7 °F 26.6 °F 23.2 °F 58% 30.03 in 10.0 mi WSW 18.4 mph 24.2 mph N/A   Overcast
10:15 PM 35.6 °F 26.2 °F 23.0 °F 60% 30.03 in 10.0 mi WSW 15.0 mph 21.9 mph N/A   Mostly Cloudy
10:35 PM 35.2 °F 25.8 °F 22.6 °F 60% 30.03 in 10.0 mi WSW 15.0 mph 19.6 mph N/A   Scattered Clouds
10:55 PM 34.9 °F 25.7 °F 22.1 °F 60% 30.02 in 10.0 mi WSW 13.8 mph - N/A   Clear
11:15 PM 34.3 °F 25.0 °F 22.3 °F 61% 30.02 in 10.0 mi WSW 13.8 mph 18.4 mph N/A   Clear
11:35 PM 34.3 °F 24.6 °F 21.9 °F 60% 30.01 in 10.0 mi WSW 15.0 mph 21.9 mph N/A   Clear
11:55 PM 33.8 °F 24.3 °F 21.7 °F 61% 30.01 in 10.0 mi WSW 13.8 mph 19.6 mph N/A   Clear